STARLINK-2303

Last updated on April 24, 2021, 12:02 a.m. UTC

1 47981U 21024E   21113.25001157 -.01179348  00000-0 -18922-1 0  9995
2 47981  53.0489  56.1756 0001290  52.3217 232.3512 15.55416732  1819
UTC
Height (km)
Latitude
Longitude
Inclination
Orbital Period
UTC large
Height (km)
Speed (km/s)
/
Latitude / Longitude
Inclination (degrees)
Orbital Period (minutes)
Azimuth
Elevation
Range (km)
Doppler Factor
iOS Compass Heading
iOS Angle

Next 30 passes for location: Hong Kong

Rise time Rise Azimuth (degrees) Set time Set Azimuth (degrees) Duration Max altitude (degrees)

No matching passes for this satellites